Regional Weather Roundup
Issued by NWS

Home | Current Version | Previous Version | Text Only | Print | Product List | Glossary Off
Versions: 1 2 3 4 5 6 7 8 9 10 11 12 13 14 15 16 17 18 19 20 21 22 23 24 25 26 27 28 29 30 31 32 33 34 35 36 37 38 39 40 41 42 43 44 45 46 47 48 49 50

000
ASUS43 KDTX 221001
RWRMI
MICHIGAN HOURLY REGIONAL WEATHER ROUNDUP
NATIONAL WEATHER SERVICE DETROIT/PONTIAC MI
500 AM EST THU FEB 22 2018

NOTE: "FAIR" INDICATES FEW OR NO CLOUDS BELOW 12,000 FEET WITH NO
SIGNIFICANT WEATHER AND/OR OBSTRUCTION TO VISIBILITY.

MIZ047>049-052>055-059>063-066>070-074>076-081>083-221100-
SOUTHEAST LOWER MICHIGAN

CITY           SKY/WX    TMP DP  RH WIND       PRES   REMARKS
ADRIAN         CLOUDY    30  26  85 E12       30.57F WCI  20
ALMA           FAIR      29  28  97 NE8       30.60F WCI  21
ANN ARBOR      MOCLDY    29  25  85 NE10      30.56F WCI  20
BAD AXE        MOCLDY    27  23  84 NE3       30.63S
CARO           MOCLDY    28  24  85 CALM      30.62S
DETROIT CITY   FAIR      29  22  75 NE10      30.59F WCI  20
DETROIT        CLOUDY    31  24  75 NE16      30.58F WCI  20
FLINT          MOCLDY    28  25  88 E8        30.59F WCI  20
GROSSE ILE     CLOUDY    30  26  83 NE9       30.58S WCI  22
HILLSDALE      FAIR      32  27  80 E12       30.52F WCI  23
HOWELL         FAIR      29  27  92 E3        30.57R

CITY           SKY/WX    TMP DP  RH WIND       PRES   REMARKS
JACKSON        FAIR      31  27  85 NE8       30.54F WCI  23
LAMBERTVILLE   CLOUDY    31  26  83 E7G16     30.56F WCI  24
LANSING        FAIR      30  27  88 E7        30.58F WCI  23
LAPEER         CLOUDY    28  25  86 E5        30.60S WCI  23
MASON          FAIR      32  26  80 E6        30.57R WCI  26
MONROE         CLOUDY    31  25  78 NE12      30.57F WCI  21
MT. CLEMENS    CLOUDY    29  27  91 NE10      30.59S WCI  20
PONTIAC        FAIR      28  25  88 E9        30.56F WCI  19
PORT HOPE        N/A     29  22  75 NE13      30.63S WCI  19
PORT HURON     FAIR      28  21  74 NE9       30.61S WCI  20
TRI CITIES     FAIR      29  24  82 E9        30.63R WCI  20
MIDLAND        CLOUDY    29  26  87 E7        30.63S WCI  22
TROY           FAIR      30  24  79 NE9       30.60F WCI  21
SAGINAW HB     MOCLDY    30  27  86 E7        30.63R WCI  23
$$
MIZ043>046-050>051-056>058-064>065-071>073-077>080-221100-
SOUTHWEST LOWER MICHIGAN

CITY           SKY/WX    TMP DP  RH WIND       PRES   REMARKS
BATTLE CREEK   FAIR      31  27  85 NE9       30.54S WCI  23
BENTON HARBOR  FAIR      30  24  78 NE7       30.53F WCI  23
BIG RAPIDS     FAIR      25  19  78 NE3       30.57F
COLDWATER      MOCLDY    33  33 100 E9        30.52F WCI  25
HOLLAND        FAIR      30  22  72 NE6       30.56F WCI  24
GRAND RAPIDS   FAIR      30  23  75 NE8       30.56F WCI  22
IONIA          FAIR      30  25  80 E7        30.56F WCI  23
KALAMAZOO      FAIR      32  26  78 NE6       30.54S WCI  26
LUDINGTON      CLOUDY    23  19  85 CALM      30.61F
MARSHALL       FAIR      31  29  92 NE6       30.54S WCI  26
MOUNT PLEASANT CLOUDY    29  27  90 NE6       30.60F WCI  23
MUSKEGON       FAIR      27  19  72 NE7       30.59F WCI  19
SOUTH HAVEN    FAIR      30  25  80 E6        30.54F WCI  24
$$
MIZ016>042-221100-
NORTHERN LOWER MICHIGAN

CITY           SKY/WX    TMP DP  RH WIND       PRES   REMARKS
ALPENA         FAIR      20  18  92 CALM      30.68S
BEAVER ISLAND  FAIR      14  12  91 E3        30.66S
BELLAIRE       FAIR      19  18  99 CALM      30.67F
CADILLAC       FAIR      20  18  91 NE6       30.55F WCI  12
CHARLEVOIX     FAIR      19  17  93 CALM      30.69F
FRANKFORT      FAIR      23  18  78 CALM      30.63F
GAYLORD        FAIR      18  17  96 CALM      30.61F
GRAYLING       MOCLDY    19  17  92 CALM      30.61F
HARBOR SPRINGS FAIR      15  14  94 E3        30.66F
HOUGHTON LAKE  CLOUDY    22  18  85 NE6       30.60F WCI  14
MANISTEE       CLOUDY    22  19  89 E5        30.62F WCI  16
OSCODA         FAIR      23  18  81 N5        30.65F WCI  17
PELLSTON       FAIR      13  10  88 CALM      30.67F
ROGERS CITY    MOCLDY    19  16  89 CALM      30.69S
TRAVERSE CITY  FAIR      23  17  78 CALM      30.64F
$$
MIZ007>008-015-221100-
EASTERN UPPER MICHIGAN

CITY           SKY/WX    TMP DP  RH WIND       PRES   REMARKS
KINROSS        FAIR       7   5  91 SE5       30.65F WCI  -2
MACKINAC ISLAN FAIR      16  15  93 SE5       30.66S WCI   9
NEWBERRY       FAIR       4   3  96 CALM      30.64S
S. S. MARIE    FAIR       8   4  83 CALM      30.66S
MUNISING         N/A      1  -1  91 S8        30.63F WCI -13
$$
MIZ004>006-011>014-085-221100-
CENTRAL UPPER MICHIGAN

CITY           SKY/WX    TMP DP  RH WIND       PRES   REMARKS
MANISTIQUE     FAIR       8   7  95 CALM      30.64S
ESCANABA       FAIR       5   2  87 CALM      30.65S
MENOMINEE      FAIR      16  11  80 N3        30.65F
$$
MIZ001>003-009>011-084-221100-
WESTERN UPPER MICHIGAN

CITY           SKY/WX    TMP DP  RH WIND       PRES   REMARKS
IRON MOUNTAIN  FAIR       5   0  79 CALM      30.57F
HOUGHTON       FAIR       1  -5  75 NW6       30.58F WCI -10
COPPER HARBOR    N/A     14   6  70 W6        30.62F WCI   5
IRONWOOD       FAIR      -7 -11  83 CALM      30.59F
$$

ABBREVIATIONS USED IN REMARKS
   TC - TEMPERATURE IN CELSIUS
  WCI - WIND CHILL INDEX
   HX - HEAT INDEX
  VSB - VISIBILITY





USA.gov is the U.S. government's official web portal to all federal, state and local government web resources and services.